Regional Weather Roundup
Issued by NWS

Home | Current Version | Previous Version | Graphics & Text | Print | Product List | Glossary On
Versions: 1 2 3 4 5 6 7 8 9 10 11 12 13 14 15 16 17 18 19 20 21 22 23 24 25 26 27 28 29 30 31 32 33 34 35 36 37 38 39 40 41 42 43 44 45 46 47 48 49 50
000
ASUS44 KMEG 291710
RWRTN
TENNESSEE HOURLY STATE WEATHER ROUNDUP
NATIONAL WEATHER SERVICE MEMPHIS TN
1200 PM CDT SAT APR 29 2017

TNZ002-004-019-021-049-052-054-088>092-291800-
WEST TENNESSEE

CITY           SKY/WX    TMP DP  RH WIND       PRES   REMARKS
MEMPHIS INTL   PTSUNNY   82  70  66 S20G31    29.88F
NWS MEMPHIS      N/A     83 N/A N/A MISG        N/A
JACKSON        MOSUNNY   83  69  62 S13G22    29.93F
DYERSBURG      PTSUNNY   82  69  64 S10G18    29.91F
SOMERVILLE     PTSUNNY   82  70  65 S9G20     29.91S
UNION CITY     MOSUNNY   82  70  65 S14       29.91F
BOLIVAR        PTSUNNY   82  70  65 S14G25    29.93S
HUNTINGDON     PTSUNNY   81  70  69 S9G20     29.95F
LEXINGTON      PTSUNNY   82  68  61 S15G24    29.96F
SAVANNAH       MOSUNNY   82  68  61 S18G26    29.96F
$$

TNZ008-025-027-028-033-062-065-066-291800-
NORTH MIDDLE TENNESSEE

CITY           SKY/WX    TMP DP  RH WIND       PRES   REMARKS
NASHVILLE      PTSUNNY   85  66  53 S15       30.01F
PORTLAND       MOSUNNY   82  68  61 S8G14     30.03F
CLARKSVILLE    MOSUNNY   82  66  58 VRB3      29.99F
SMYRNA         CLOUDY    85  68  56 S13       30.01F
COOKEVILLE     SUNNY     86  64  48 S18G28    30.03F
GALLATIN       MOSUNNY   86  66  51 VRB6G15   30.04F
CROSSVILLE     MOSUNNY   80  64  58 MISG      30.13S
$$

TNZ061-075-076-078-094-096-097-291800-
SOUTH MIDDLE TENNESSEE

CITY           SKY/WX    TMP DP  RH WIND       PRES   REMARKS
FAYETTEVILLE   SUNNY     84  68  58 S18G25    30.04S
TULLAHOMA      SUNNY     84  63  48 S18       30.05F
WINCHESTER     SUNNY     86  66  51 S12G26    30.06S
MCMINNVILLE    SUNNY     88  66  48 S13       30.04F HX  90
COLUMBIA       MOSUNNY   84  73  70 S13       29.99S HX  91
SHELBYVILLE    SUNNY     88  66  48 S24       30.02S HX  90
$$

TNZ017-018-042-046-047-291800-
NORTHEAST TENNESSEE

CITY           SKY/WX    TMP DP  RH WIND       PRES   REMARKS
TRI CITIES     PTSUNNY   86  66  51 W8        30.13F
ELIZABETHTON   SUNNY     86  64  48 VRB6G13   30.13F
$$

TNZ012-013-036-069-073-074-291800-
CENTRAL EAST TENNESSEE

CITY           SKY/WX    TMP DP  RH WIND       PRES   REMARKS
KNOXVILLE      CLOUDY    86  65  49 SW16G24   30.09F
OAK RIDGE      SUNNY     87  62  43 S8G20     30.10F
DOWNTOWN KNOXV SUNNY     88  66  48 W10G17    30.09F HX  90
GATLINBURG     SUNNY     84  66  54 VRB5      30.09F
MORRISTOWN     SUNNY     84  66  54 W9        30.11F
JACKSBORO      SUNNY     84  66  54 S17       30.12F
$$

TNZ083-085-099-291800-
SOUTHEAST TENNESSEE

CITY           SKY/WX    TMP DP  RH WIND       PRES   REMARKS
CHATTANOOGA    PTSUNNY   86  66  51 S14G20    30.09F
$$

SKY/WX REPORTED AS FAIR MEANS FEW OR NO CLOUDS BELOW
12 THOUSAND FEET.




USA.gov is the U.S. government's official web portal to all federal, state and local government web resources and services.